When you browse on this site, cookies collect data to enhance your experience and personalize the content and advertising you see.
Visit our Privacy Policy to learn more. By continuing to use the site, you agree to this use of cookies and data.
  • In Portugal
  • List of Countries
  • For 7 days
  • Water Temperature
  • Satellite Maps
  • Weather Map
  • Weather Widgets
  • user-avatar
    Login

    Hourly Weather Shaki

    Today, 24 March, Sunday

    Time Temperature Precipitation Wind Pressure Humidity
    00:00 +8°C° 0 mm 2 mps 732 mmHg 49%
    01:00 +7°C° 0 mm 2 mps 732 mmHg 50%
    02:00 +7°C° 0 mm 2 mps 731 mmHg 51%
    03:00 +8°C° 0 mm 2 mps 731 mmHg 48%
    04:00 +7°C° 0 mm 2 mps 731 mmHg 49%
    05:00 +7°C° 0 mm 2 mps 731 mmHg 51%
    06:00 +7°C° 0 mm 2 mps 731 mmHg 52%
    07:00 +8°C° 0 mm 2 mps 731 mmHg 50%
    08:00 +10°C° 0 mm 2 mps 731 mmHg 47%
    09:00 +13°C° 0 mm 2 mps 731 mmHg 45%
    10:00 +13°C° 0.1 mm 2 mps 731 mmHg 45%
    11:00 +14°C° 0.1 mm 2 mps 731 mmHg 44%
    12:00 +14°C° 0.1 mm 2 mps 731 mmHg 44%
    13:00 +14°C° 0.1 mm 2 mps 731 mmHg 44%
    14:00 +14°C° 0.1 mm 2 mps 731 mmHg 44%
    15:00 +14°C° 0 mm 2 mps 731 mmHg 46%
    16:00 +13°C° 0.1 mm 2 mps 731 mmHg 50%
    17:00 +12°C° 0.1 mm 2 mps 732 mmHg 53%
    18:00 +10°C° 0.1 mm 3 mps 732 mmHg 57%
    19:00 +10°C° 0.4 mm 2 mps 732 mmHg 60%
    20:00 +9°C° 0.4 mm 2 mps 733 mmHg 64%
    21:00 +8°C° 0.4 mm 2 mps 733 mmHg 67%
    22:00 +8°C° 0.4 mm 2 mps 733 mmHg 68%
    23:00 +8°C° 0.4 mm 3 mps 733 mmHg 69%

    Tomorrow, 25 March, Monday

    Time Temperature Precipitation Wind Pressure Humidity
    00:00 +8°C° 0.4 mm 3 mps 733 mmHg 69%
    01:00 +7°C° 0.1 mm 3 mps 733 mmHg 70%
    02:00 +7°C° 0.1 mm 2 mps 733 mmHg 70%
    03:00 +7°C° 0.1 mm 2 mps 733 mmHg 70%
    04:00 +7°C° 0.1 mm 2 mps 733 mmHg 69%
    05:00 +7°C° 0.1 mm 2 mps 734 mmHg 68%
    06:00 +7°C° 0.1 mm 2 mps 734 mmHg 67%
    07:00 +8°C° 0 mm 2 mps 734 mmHg 64%
    08:00 +9°C° 0 mm 2 mps 734 mmHg 61%
    09:00 +10°C° 0 mm 2 mps 734 mmHg 57%
    10:00 +10°C° 0.1 mm 2 mps 734 mmHg 58%
    11:00 +10°C° 0.1 mm 3 mps 733 mmHg 60%
    12:00 +10°C° 0.1 mm 3 mps 733 mmHg 61%
    13:00 +8°C° 0.1 mm 4 mps 733 mmHg 67%
    14:00 +8°C° 0.1 mm 4 mps 733 mmHg 73%
    15:00 +7°C° 0.1 mm 5 mps 733 mmHg 80%
    16:00 +6°C° 0.2 mm 5 mps 734 mmHg 80%
    17:00 +5°C° 0.2 mm 5 mps 734 mmHg 81%
    18:00 +5°C° 0.2 mm 4 mps 734 mmHg 81%
    19:00 +5°C° 0.2 mm 4 mps 735 mmHg 82%
    20:00 +4°C° 0.2 mm 3 mps 735 mmHg 82%
    21:00 +4°C° 0.2 mm 3 mps 736 mmHg 83%
    22:00 +5°C° 0.1 mm 2 mps 736 mmHg 84%
    23:00 +5°C° 0.1 mm 2 mps 736 mmHg 84%

    Day after tomorrow, 26 March, Tuesday

    Time Temperature Precipitation Wind Pressure Humidity
    00:00 +5°C° 0.1 mm 2 mps 736 mmHg 84%
    01:00 +5°C° 0.1 mm 2 mps 736 mmHg 84%
    02:00 +5°C° 0.1 mm 1 mps 736 mmHg 85%
    03:00 +5°C° 0.1 mm 1 mps 736 mmHg 85%
    04:00 +5°C° 0 mm 1 mps 736 mmHg 85%
    05:00 +5°C° 0 mm 1 mps 736 mmHg 85%
    06:00 +4°C° 0 mm 0 mps 736 mmHg 85%
    07:00 +6°C° 0 mm 1 mps 736 mmHg 80%
    08:00 +7°C° 0 mm 1 mps 736 mmHg 75%
    09:00 +8°C° 0 mm 2 mps 736 mmHg 70%
    10:00 +9°C° 0.1 mm 2 mps 736 mmHg 68%
    11:00 +9°C° 0.1 mm 3 mps 736 mmHg 65%
    12:00 +10°C° 0.1 mm 3 mps 735 mmHg 63%
    13:00 +11°C° 0.1 mm 3 mps 735 mmHg 61%
    14:00 +11°C° 0.1 mm 3 mps 734 mmHg 60%
    15:00 +12°C° 0.1 mm 3 mps 734 mmHg 59%
    16:00 +11°C° 0.1 mm 3 mps 734 mmHg 64%
    17:00 +10°C° 0.1 mm 3 mps 734 mmHg 69%
    18:00 +9°C° 0.1 mm 3 mps 734 mmHg 74%
    19:00 +8°C° 0 mm 2 mps 734 mmHg 77%
    20:00 +8°C° 0 mm 1 mps 734 mmHg 79%
    21:00 +7°C° 0 mm 0 mps 734 mmHg 81%
    22:00 +8°C° 0 mm 1 mps 734 mmHg 81%
    23:00 +7°C° 0 mm 1 mps 734 mmHg 81%

    27 March, Wednesday

    Time Temperature Precipitation Wind Pressure Humidity
    00:00 +7°C° 0 mm 1 mps 733 mmHg 81%
    01:00 +7°C° 0 mm 1 mps 733 mmHg 80%
    02:00 +7°C° 0 mm 1 mps 733 mmHg 78%
    03:00 +6°C° 0 mm 2 mps 733 mmHg 77%
    04:00 +6°C° 0 mm 2 mps 732 mmHg 75%
    05:00 +6°C° 0 mm 2 mps 732 mmHg 74%
    06:00 +6°C° 0 mm 2 mps 732 mmHg 73%
    07:00 +8°C° 0 mm 2 mps 732 mmHg 68%
    08:00 +10°C° 0 mm 2 mps 732 mmHg 63%
    09:00 +12°C° 0 mm 3 mps 733 mmHg 57%
    10:00 +13°C° 0 mm 3 mps 732 mmHg 55%
    11:00 +14°C° 0 mm 3 mps 732 mmHg 52%
    12:00 +16°C° 0 mm 3 mps 732 mmHg 49%
    13:00 +17°C° 0.1 mm 3 mps 732 mmHg 47%
    14:00 +17°C° 0.1 mm 3 mps 732 mmHg 45%
    15:00 +18°C° 0.1 mm 3 mps 732 mmHg 43%
    16:00 +17°C° 0.1 mm 2 mps 732 mmHg 46%
    17:00 +16°C° 0.1 mm 1 mps 732 mmHg 49%
    18:00 +14°C° 0.1 mm 1 mps 733 mmHg 53%
    19:00 +14°C° 0 mm 1 mps 733 mmHg 55%
    20:00 +13°C° 0 mm 2 mps 734 mmHg 57%
    21:00 +12°C° 0 mm 2 mps 735 mmHg 59%
    22:00 +12°C° 0 mm 2 mps 735 mmHg 61%
    23:00 +10°C° 0 mm 2 mps 735 mmHg 63%

    28 March, Thursday

    Time Temperature Precipitation Wind Pressure Humidity
    00:00 +11°C° 0 mm 1 mps 735 mmHg 66%
    01:00 +10°C° 0 mm 1 mps 735 mmHg 69%
    02:00 +10°C° 0 mm 1 mps 736 mmHg 72%
    03:00 +8°C° 0 mm 0 mps 736 mmHg 75%
    04:00 +9°C° 0 mm 1 mps 736 mmHg 74%
    05:00 +9°C° 0 mm 1 mps 736 mmHg 74%
    06:00 +9°C° 0 mm 1 mps 737 mmHg 74%
    07:00 +10°C° 0 mm 1 mps 737 mmHg 66%
    08:00 +12°C° 0 mm 1 mps 737 mmHg 59%
    09:00 +14°C° 0 mm 2 mps 738 mmHg 51%
    10:00 +14°C° 0 mm 2 mps 737 mmHg 47%
    11:00 +15°C° 0 mm 2 mps 737 mmHg 44%
    12:00 +16°C° 0 mm 2 mps 737 mmHg 40%
    13:00 +16°C° 0 mm 2 mps 737 mmHg 41%
    14:00 +16°C° 0 mm 2 mps 737 mmHg 42%
    15:00 +16°C° 0 mm 2 mps 737 mmHg 43%
    16:00 +14°C° 0.1 mm 3 mps 737 mmHg 50%
    17:00 +12°C° 0.1 mm 3 mps 737 mmHg 57%
    18:00 +11°C° 0.1 mm 3 mps 738 mmHg 64%
    19:00 +10°C° 0.8 mm 3 mps 738 mmHg 69%
    20:00 +10°C° 0.8 mm 3 mps 739 mmHg 74%
    21:00 +9°C° 0.8 mm 2 mps 739 mmHg 78%
    22:00 +8°C° 1.7 mm 2 mps 739 mmHg 82%
    23:00 +8°C° 1.7 mm 2 mps 739 mmHg 85%

    29 March, Friday

    Time Temperature Precipitation Wind Pressure Humidity
    00:00 +7°C° 1.7 mm 2 mps 739 mmHg 88%
    01:00 +7°C° 1.2 mm 2 mps 739 mmHg 88%
    02:00 +6°C° 1.2 mm 2 mps 739 mmHg 88%
    03:00 +7°C° 1.2 mm 1 mps 739 mmHg 88%
    04:00 +7°C° 0.7 mm 1 mps 739 mmHg 87%
    05:00 +7°C° 0.7 mm 1 mps 740 mmHg 87%
    06:00 +7°C° 0.7 mm 1 mps 740 mmHg 86%
    07:00 +7°C° 0.8 mm 1 mps 740 mmHg 85%
    08:00 +6°C° 0.8 mm 2 mps 740 mmHg 85%
    09:00 +6°C° 0.8 mm 2 mps 740 mmHg 84%
    10:00 +6°C° 0.6 mm 2 mps 740 mmHg 83%
    11:00 +6°C° 0.6 mm 2 mps 740 mmHg 82%
    12:00 +6°C° 0.6 mm 2 mps 740 mmHg 80%
    13:00 +7°C° 0.3 mm 2 mps 740 mmHg 79%
    14:00 +7°C° 0.3 mm 2 mps 739 mmHg 77%
    15:00 +8°C° 0.3 mm 2 mps 739 mmHg 76%
    16:00 +7°C° 0.1 mm 2 mps 739 mmHg 78%
    17:00 +7°C° 0.1 mm 2 mps 740 mmHg 80%
    18:00 +6°C° 0.1 mm 2 mps 740 mmHg 82%
    19:00 +6°C° 0 mm 2 mps 740 mmHg 84%
    20:00 +5°C° 0 mm 2 mps 740 mmHg 85%
    21:00 +5°C° 0 mm 2 mps 741 mmHg 87%
    22:00 +5°C° 0.1 mm 2 mps 741 mmHg 86%
    23:00 +5°C° 0.1 mm 2 mps 740 mmHg 85%
    Show more